Meteo pe oră la Dziedziule

Astăzi, 5 Martie, Vineri

Timp Temperatura Precipitaţii Vânt Presiune Umiditate
00:00 -4°C° 0 mm 2 m/s 745 mmHg 78%
01:00 -4°C° 0 mm 2 m/s 746 mmHg 77%
02:00 -4°C° 0 mm 2 m/s 746 mmHg 76%
03:00 -4°C° 0 mm 2 m/s 746 mmHg 75%
04:00 -4°C° 0 mm 2 m/s 746 mmHg 74%
05:00 -4°C° 0 mm 2 m/s 746 mmHg 73%
06:00 -4°C° 0 mm 2 m/s 747 mmHg 73%
07:00 -5°C° 0 mm 3 m/s 747 mmHg 74%
08:00 -5°C° 0 mm 3 m/s 747 mmHg 75%
09:00 -4°C° 0 mm 3 m/s 748 mmHg 67%
10:00 -3°C° 0 mm 4 m/s 748 mmHg 60%
11:00 -2°C° 0 mm 4 m/s 748 mmHg 52%
12:00 -2°C° 0 mm 4 m/s 749 mmHg 45%
13:00 -1°C° 0 mm 4 m/s 749 mmHg 37%
14:00 0°C° 0 mm 3 m/s 749 mmHg 30%
15:00 0°C° 0 mm 3 m/s 749 mmHg 33%
16:00 -1°C° 0 mm 3 m/s 749 mmHg 35%
17:00 -1°C° 0 mm 2 m/s 749 mmHg 38%
18:00 -2°C° 0 mm 2 m/s 750 mmHg 43%
19:00 -2°C° 0 mm 3 m/s 750 mmHg 49%
20:00 -4°C° 0 mm 3 m/s 750 mmHg 55%
21:00 -4°C° 0 mm 3 m/s 751 mmHg 61%
22:00 -4°C° 0 mm 3 m/s 751 mmHg 67%
23:00 -4°C° 0 mm 4 m/s 751 mmHg 74%

Mâine, 6 Martie, Sâmbătă

Timp Temperatura Precipitaţii Vânt Presiune Umiditate
00:00 -4°C° 0 mm 4 m/s 752 mmHg 72%
01:00 -5°C° 0 mm 4 m/s 752 mmHg 70%
02:00 -5°C° 0 mm 4 m/s 752 mmHg 68%
03:00 -5°C° 0 mm 4 m/s 752 mmHg 71%
04:00 -7°C° 0 mm 4 m/s 753 mmHg 74%
05:00 -7°C° 0 mm 4 m/s 753 mmHg 77%
06:00 -7°C° 0 mm 4 m/s 753 mmHg 73%
07:00 -7°C° 0 mm 4 m/s 754 mmHg 68%
08:00 -6°C° 0 mm 3 m/s 754 mmHg 63%
09:00 -5°C° 0 mm 3 m/s 755 mmHg 58%
10:00 -4°C° 0 mm 3 m/s 755 mmHg 53%
11:00 -2°C° 0 mm 3 m/s 755 mmHg 49%
12:00 -2°C° 0 mm 4 m/s 755 mmHg 48%
13:00 -2°C° 0 mm 4 m/s 754 mmHg 48%
14:00 -1°C° 0 mm 5 m/s 754 mmHg 47%
15:00 -1°C° 0 mm 5 m/s 753 mmHg 49%
16:00 -1°C° 0 mm 5 m/s 753 mmHg 50%
17:00 -1°C° 0 mm 4 m/s 752 mmHg 51%
18:00 -2°C° 0 mm 5 m/s 752 mmHg 54%
19:00 -2°C° 0 mm 5 m/s 751 mmHg 58%
20:00 -4°C° 0 mm 5 m/s 750 mmHg 61%
21:00 -4°C° 0 mm 6 m/s 750 mmHg 63%
22:00 -4°C° 0 mm 7 m/s 749 mmHg 64%
23:00 -3°C° 0 mm 7 m/s 748 mmHg 66%

Poimâine, 7 Martie, Duminică

Timp Temperatura Precipitaţii Vânt Presiune Umiditate
00:00 -4°C° 0.1 mm 8 m/s 747 mmHg 76%
01:00 -4°C° 0.1 mm 8 m/s 746 mmHg 86%
02:00 -4°C° 0.1 mm 9 m/s 746 mmHg 95%
03:00 -4°C° 0.3 mm 9 m/s 745 mmHg 95%
04:00 -4°C° 0.3 mm 9 m/s 744 mmHg 95%
05:00 -4°C° 0.3 mm 9 m/s 743 mmHg 95%
06:00 -4°C° 0.3 mm 9 m/s 743 mmHg 93%
07:00 -2°C° 0.3 mm 8 m/s 743 mmHg 92%
08:00 -2°C° 0.3 mm 7 m/s 743 mmHg 90%
09:00 -2°C° 0.2 mm 7 m/s 743 mmHg 88%
10:00 -2°C° 0.2 mm 6 m/s 743 mmHg 86%
11:00 -3°C° 0.2 mm 6 m/s 743 mmHg 84%
12:00 -2°C° 0.3 mm 5 m/s 743 mmHg 84%
13:00 -2°C° 0.3 mm 5 m/s 743 mmHg 84%
14:00 -1°C° 0.3 mm 5 m/s 743 mmHg 85%
15:00 -2°C° 0.3 mm 5 m/s 742 mmHg 85%
16:00 -3°C° 0.3 mm 6 m/s 742 mmHg 86%
17:00 -4°C° 0.3 mm 6 m/s 742 mmHg 87%
18:00 -4°C° 0.1 mm 5 m/s 742 mmHg 84%
19:00 -3°C° 0.1 mm 4 m/s 742 mmHg 81%
20:00 -4°C° 0.1 mm 4 m/s 742 mmHg 78%
21:00 -4°C° 0 mm 4 m/s 743 mmHg 78%
22:00 -5°C° 0 mm 3 m/s 743 mmHg 77%
23:00 -5°C° 0 mm 3 m/s 743 mmHg 77%

8 Martie, Luni

Timp Temperatura Precipitaţii Vânt Presiune Umiditate
00:00 -5°C° 0 mm 3 m/s 743 mmHg 76%
01:00 -5°C° 0 mm 4 m/s 743 mmHg 76%
02:00 -5°C° 0 mm 4 m/s 743 mmHg 75%
03:00 -6°C° 0 mm 3 m/s 743 mmHg 76%
04:00 -6°C° 0 mm 3 m/s 743 mmHg 78%
05:00 -6°C° 0 mm 3 m/s 743 mmHg 79%
06:00 -6°C° 0 mm 3 m/s 744 mmHg 79%
07:00 -6°C° 0 mm 3 m/s 744 mmHg 78%
08:00 -6°C° 0 mm 3 m/s 745 mmHg 78%
09:00 -5°C° 0 mm 3 m/s 745 mmHg 74%
10:00 -5°C° 0 mm 4 m/s 745 mmHg 70%
11:00 -4°C° 0 mm 4 m/s 746 mmHg 66%
12:00 -4°C° 0.1 mm 4 m/s 746 mmHg 64%
13:00 -4°C° 0.1 mm 4 m/s 746 mmHg 62%
14:00 -3°C° 0.1 mm 4 m/s 747 mmHg 60%
15:00 -4°C° 0 mm 4 m/s 747 mmHg 60%
16:00 -4°C° 0 mm 4 m/s 747 mmHg 59%
17:00 -4°C° 0 mm 4 m/s 747 mmHg 59%
18:00 -5°C° 0 mm 4 m/s 748 mmHg 62%
19:00 -5°C° 0 mm 3 m/s 749 mmHg 66%
20:00 -6°C° 0 mm 3 m/s 749 mmHg 69%
21:00 -7°C° 0 mm 3 m/s 750 mmHg 69%
22:00 -7°C° 0 mm 3 m/s 750 mmHg 68%
23:00 -7°C° 0 mm 3 m/s 751 mmHg 68%

9 Martie, Marţi

Timp Temperatura Precipitaţii Vânt Presiune Umiditate
00:00 -8°C° 0 mm 3 m/s 751 mmHg 68%
01:00 -8°C° 0 mm 3 m/s 751 mmHg 68%
02:00 -8°C° 0 mm 3 m/s 752 mmHg 68%
03:00 -9°C° 0 mm 3 m/s 752 mmHg 69%
04:00 -9°C° 0 mm 3 m/s 752 mmHg 70%
05:00 -9°C° 0 mm 3 m/s 753 mmHg 70%
06:00 -9°C° 0 mm 3 m/s 753 mmHg 70%
07:00 -9°C° 0 mm 3 m/s 753 mmHg 70%
08:00 -10°C° 0 mm 4 m/s 754 mmHg 69%
09:00 -9°C° 0 mm 3 m/s 754 mmHg 63%
10:00 -8°C° 0 mm 3 m/s 755 mmHg 56%
11:00 -7°C° 0 mm 3 m/s 755 mmHg 49%
12:00 -7°C° 0 mm 3 m/s 755 mmHg 45%
13:00 -6°C° 0 mm 3 m/s 755 mmHg 41%
14:00 -5°C° 0 mm 3 m/s 756 mmHg 37%
15:00 -6°C° 0 mm 3 m/s 756 mmHg 37%
16:00 -5°C° 0 mm 2 m/s 756 mmHg 37%
17:00 -5°C° 0 mm 2 m/s 756 mmHg 38%
18:00 -5°C° 0 mm 2 m/s 756 mmHg 41%
19:00 -4°C° 0 mm 1 m/s 756 mmHg 45%
20:00 -6°C° 0 mm 1 m/s 757 mmHg 49%
21:00 -6°C° 0 mm 1 m/s 757 mmHg 50%
22:00 -6°C° 0 mm 1 m/s 757 mmHg 52%
23:00 -6°C° 0 mm 1 m/s 757 mmHg 54%

10 Martie, Miercuri

Timp Temperatura Precipitaţii Vânt Presiune Umiditate
00:00 -7°C° 0 mm 1 m/s 757 mmHg 56%
01:00 -8°C° 0 mm 2 m/s 757 mmHg 58%
02:00 -8°C° 0 mm 2 m/s 757 mmHg 61%
03:00 -8°C° 0 mm 2 m/s 757 mmHg 63%
04:00 -9°C° 0 mm 2 m/s 757 mmHg 66%
05:00 -9°C° 0 mm 2 m/s 757 mmHg 69%
06:00 -10°C° 0 mm 3 m/s 757 mmHg 68%
07:00 -9°C° 0 mm 3 m/s 757 mmHg 67%
08:00 -10°C° 0 mm 4 m/s 757 mmHg 66%
09:00 -9°C° 0 mm 4 m/s 757 mmHg 61%
10:00 -8°C° 0 mm 4 m/s 757 mmHg 55%
11:00 -6°C° 0 mm 5 m/s 756 mmHg 49%
12:00 -5°C° 0 mm 5 m/s 756 mmHg 47%
13:00 -5°C° 0 mm 5 m/s 756 mmHg 44%
14:00 -4°C° 0 mm 5 m/s 755 mmHg 42%
15:00 -4°C° 0 mm 5 m/s 754 mmHg 43%
16:00 -4°C° 0 mm 5 m/s 754 mmHg 43%
17:00 -4°C° 0 mm 5 m/s 753 mmHg 44%
18:00 -5°C° 0 mm 5 m/s 753 mmHg 46%
19:00 -5°C° 0 mm 5 m/s 752 mmHg 48%
20:00 -6°C° 0 mm 5 m/s 752 mmHg 49%
21:00 -6°C° 0 mm 6 m/s 751 mmHg 48%
22:00 -6°C° 0 mm 6 m/s 751 mmHg 46%
23:00 -7°C° 0 mm 7 m/s 750 mmHg 44%
Arată mai mult

Formular de consimțământ

Meteoprog și furnizorii noștri de servicii pot stoca și accesa date personale, precum cookies, identificatori de dispozitiv sau alte tehnologii similare pe dispozitivul dumneavoastră și procesa astfel de date pentru a personaliza conținutul și reclamele, dar și pentru a oferi caracteristici de social media și pentru a analiza traficul.

  • Stocarea și/sau accesarea informațiilor pe dispozitivul dumneavoastră

    Cookies, identificatori de dispozitiv sau alte informații pot fi stocate sau accesate pe dispozitiv în scopurile indicate mai sus.

  • Reclame și conținut personalizat, evaluarea reclamelor și a conținutului, informații despre audiențe și dezvoltarea produselor

    Reclamele și conținutul pot fi personalizate pe baza unui profil. Pot fi adăugate date suplimentare pentru a personaliza mai bine reclamele și conținutul. Performanța reclamelor și conținutului poate fi măsurată. Pot fi obținute informații despre utilizatorii care au văzut reclamele și conținutul. Aceste date pot fi utilizate pentru a dezvolta sau îmbunătăți experiența utilizatorilor, sistemele și software-ul.

Dând clic pe ‘Sunt de acord’, permiteți utilizarea cookie-urilor menționate, a identificatorilor de dispozitiv, balizelor web sau altor tehnologii similare. Setările pot fi modificate din browser-ul dispozitivului dumneavoastră.

În anumite scopuri, interesele legitime pot prima asupra consimțământului. Puteți citi mai multe informații în acest sens în Politica privind Confidențialitatea Datelor și Cookie.